Lawrence, MA

5:41 AM EST on November 21, 2019 (GMT -0500)
Lawrence Municipal

Weather History for KLWM - August, 2019

Change the Weather History Date:

Monday, August 12, 2019

  Actual Average Record
Temperature  
Mean Temperature 71 °F -  
Max Temperature 82 °F 80 °F 98 °F (1944)
Min Temperature 60 °F 61 °F 48 °F (1930)
Cooling Degree Days 6    
Growing Degree Days 21 (Base 50)    
Moisture  
Dew Point 59 °F    
Average Humidity 63    
Maximum Humidity 86    
Minimum Humidity 45    
Precipitation  
Precipitation 0.00 in - - ()
Sea Level Pressure  
Sea Level Pressure 29.90 in    
Wind  
Wind Speed 7 mph (SW)    
Max Wind Speed 14 mph    
Max Gust Speed 21 mph    
Visibility 10 miles    
Events      
Averages and records for this station are not official NWS values.
T = Trace of Precipitation, MM = Missing Value Source: NWS Daily Summary

Daily Weather History Graph

Daily Weather History Graph

Search for Another Location

Airport or City:

Astronomy

Aug. 12, 2019 Rise Set
Actual Time 5:47 AM EDT 7:50 PM EDT
Civil Twilight 5:16 AM EDT 8:21 PM EDT
Nautical Twilight 4:38 AM EDT 8:59 PM EDT
Astronomical Twilight 3:57 AM EDT 9:40 PM EDT
Moon 6:21 PM EDT (8/12) 2:50 AM EDT (8/12)
Length of Visible Light 15h 05m
Length of Day
14h 03m
Waxing Gibbous, 93% of the Moon is Illuminated
Aug 12
Waxing Gibbous
Aug 15
Full
Aug 23
Last Quarter
Aug 30
New
Sep 5
First Quarter

Hourly Weather History & Observations

Time (EDT) Temp. Heat Index Dew Point Humidity Pressure Visibility Wind Dir Wind Speed Gust Speed Precip Events Conditions
1:54 AM 63.0 °F - 57.0 °F 81% 29.96 in 10.0 mi SSW 4.6 mph - N/A   Clear
2:54 AM 62.1 °F - 55.9 °F 80% 29.95 in 10.0 mi SSW 6.9 mph - N/A   Clear
3:54 AM 62.1 °F - 55.9 °F 80% 29.94 in 10.0 mi SSW 4.6 mph - N/A   Clear
4:54 AM 60.1 °F - 55.9 °F 86% 29.95 in 10.0 mi SW 4.6 mph - N/A   Clear
5:54 AM 61.0 °F - 55.0 °F 81% 29.97 in 10.0 mi SSW 6.9 mph - N/A   Clear
6:54 AM 63.0 °F - 55.0 °F 75% 29.96 in 10.0 mi SSW 4.6 mph - N/A   Clear
7:54 AM 66.0 °F - 57.0 °F 73% 29.96 in 10.0 mi SW 6.9 mph - N/A   Clear
8:54 AM 70.0 °F - 57.0 °F 63% 29.95 in 10.0 mi West 6.9 mph - N/A   Clear
9:54 AM 72.0 °F - 57.9 °F 61% 29.95 in 10.0 mi WSW 8.1 mph - N/A   Clear
10:54 AM 75.2 °F - 60.8 °F 61% 29.94 in 10.0 mi Variable 6.9 mph - N/A   Clear
11:54 AM 78.8 °F - 60.8 °F 54% 29.92 in 10.0 mi Variable 4.6 mph - N/A   Clear
12:54 PM 82.0 °F 82.4 °F 60.1 °F 47% 29.89 in 10.0 mi WSW 8.1 mph 17.3 mph N/A   Scattered Clouds
1:54 PM 82.4 °F 82.5 °F 59.0 °F 45% 29.88 in 10.0 mi SW 8.1 mph - N/A   Partly Cloudy
3:00 PM 82.4 °F 82.5 °F 59.0 °F 45% 29.86 in 10.0 mi WSW 13.8 mph 20.7 mph N/A   Clear
4:00 PM 82.4 °F 82.9 °F 60.8 °F 48% 29.85 in 10.0 mi West 10.4 mph 19.6 mph N/A   Clear
5:00 PM 82.4 °F 82.9 °F 60.8 °F 48% 29.85 in 10.0 mi West 11.5 mph 18.4 mph N/A   Clear
6:00 PM 82.4 °F 82.9 °F 60.8 °F 48% 29.84 in 10.0 mi West 10.4 mph - N/A   Clear
7:00 PM 80.6 °F 81.5 °F 60.8 °F 51% 29.84 in 10.0 mi SW 6.9 mph - N/A   Clear
8:00 PM 77.0 °F - 60.8 °F 57% 29.84 in 10.0 mi SW 5.8 mph - N/A   Clear
9:00 PM 75.2 °F - 60.8 °F 61% 29.84 in 10.0 mi SW 5.8 mph - N/A   Clear
10:00 PM 71.6 °F - 60.8 °F 69% 29.84 in 10.0 mi SW 5.8 mph - N/A   Clear